Terminal Aerodrome Forecast
Issued by NWS

Home | Current Version | Previous Version | Text Only | Print | Product List | Glossary Off
Versions: 1 2 3 4 5 6 7 8 9 10 11 12 13

000
FTUS42 KMHX 211100
TAFOAJ
TAF
KOAJ 211122Z 2112/2212 23003KT P6SM BKN120
     FM211400 24006KT P6SM SCT050
     FM220300 31005KT P6SM SCT080
      AMD LTD TO CLD VIS AND WIND=

USA.gov is the U.S. government's official web portal to all federal, state and local government web resources and services.